sat.trackr.live / text

‹ back to catalog

STARLINK-5247

NORAD 54203 · 2022-141AY

PAYLOAD ACTIVE UNKNOWN

§ Identity

Operator
Country
US
Launch date
2022-10-28
Launch site
AFWTR
Launch vehicle
Mass (kg)
RCS (m²)

Purposes: comms

External: N2YO · Heavens-Above · Gunter

§ Orbital elements

Epoch: 2026-05-25T00:26:09.303936Z

Period
95.44 min
Inclination
53.2148°
Eccentricity
0.0001224
Mean motion
15.08840292 rev/d
Perigee alt
538.9 km
Apogee alt
540.6 km
Semi-major
6,917.9 km
B*
5.8745e-5
RAAN
11.2731°
Arg perigee
95.7388°
Mean anomaly
264.3744°
Rev number
19,752

§ Raw data

STARLINK-52471 54203U 22141AY  26145.01816324  .00000647  00000+0  58745-4 0  99962 54203  53.2148  11.2731 0001224  95.7388 264.3744 15.08840292197526

JSON: /api/v1/satellites/54203 · /tle

For live sub-satellite position, see the globe view (requires WebGL).

§ Visibility from observer

Set your observer location to see the next 7 days of passes ≥ 10°. The values pass through the URL so the page stays shareable.

No JS? Fill the form by hand. The geolocation button needs JavaScript.